Location: Newark
(35.2161°N, 26.1013°E)
Time: 10:42:30
(UTC+00:00)

BEESAT 2 - Pass Details

Date: 24 January 2020
Orbit: 493 x 534 km, 64.9° (Epoch: 25 February)

Event Time Altitude Azimuth Distance (km) Brightness Sun altitude
Exits shadow 04:31:05 - 327° (NNW) 1,973 ? -10.3°
Reaches altitude 10° 04:31:33 10° 326° (NW) 1,788 ? -10.2°
Maximum altitude 04:35:32 70° 243° (WSW) 567 ? -9.4°
Drops below altitude 10° 04:39:28 10° 160° (SSE) 1,763 ? -8.7°
Sets 04:41:38 0° 157° (SSE) 2,643 ? -8.2°
